Weather in Belky

Ukraine / Zakarpattia District     48°19′46″N   23°08′22″E
temp.,
°C
wind,
m/s
gust,
m/s
humid.,
%
clouds,
%
prec.,
mm/h
press.,
hPa
HPBL,
m
20 january, thu
thu2023:00−8e229669 0.0 102719
02:00−8e229590 0.0 102527
05:00−6ese2292100 0.0 102286
08:00−6se2394100 0.2 1021101
11:00−5se2496100 0.9 1019199
14:00−3sse2697100 4.6 1015401
17:000sw51297100 3.2 10121024
20:000wsw81398100 6.3 1010986
21 january, fri
fri2123:00−7wnw37802 0.7 1016132
02:00−13ene21945 0.7 101811
05:00−14ene229687 0.0 101917
08:00−15ene229891 0.0 102016
11:00−8s119485 0.0 1020141
14:00−4wsw248491 0.1 1019607
17:00−6wsw1297100 0.3 101951
20:00−6ssw229887 1.0 101959
22 january, sat
sat2223:00−11e0198100 0.1 102010
02:00−9e1197100 0.1 102015
05:00−9ene1197100 0.1 101924
08:00−9ene1197100 0.2 102017
11:00−6wsw129296 0.1 1020242
14:00−4wsw2588100 0.3 1019581
17:00−5w139136 0.5 101963
20:00−11ne1197100 0.6 102210
23 january, sun
sun2323:00−12nne229665 0.0 102413
02:00−13ne22966 0.0 102513
05:00−14ene2297100 0.0 102713
08:00−13ene1196100 0.0 102715
11:00−7s118998 0.0 1027140
14:00−4wsw2392100 0.3 1025336
17:00−6nnw119259 0.3 102520
20:00−10n32925 0.3 102729
24 january, mon
mon2423:00−12nne33905 0.0 102833
02:00−14ne33905 0.0 103034
05:00−16ne33905 0.0 103129
08:00−17ene23915 0.0 103230
11:00−10e12792 0.0 1033174
14:00−6sse11778 0.0 1031332
17:00−11se11948 0.0 103210
20:00−15ene229778 0.0 103415